Simultaneous Nadir Overpasses (SNOs) Predictions

Prediction of SNOs between AQUA and METOP-B Satellite Orbit:

Table of predicted SNOs for the next 14.0 days since TLE Epoch: 7/6/2018
Index Date (AQUA) Time (AQUA) Lat,Lon (AQUA) SZA (AQUA ) Date (METOP-B) Time (METOP-B) Lat,Lon (METOP-B) SZA (METOP-B ) Distance(km) Time Diff (sec)
1 07/09/2018 03:46:39 -73.93, -62.54 128.38 07/09/2018 03:46:07 -73.94, -62.58 128.36 1.48 32
2 07/09/2018 04:36:07 73.99, 104.96 51.70 07/09/2018 04:36:46 74.00, 104.89 51.70 2.34 39
3 07/11/2018 23:20:54 -73.95, 3.86 128.00 07/11/2018 23:20:27 -73.94, 3.83 128.00 1.54 27
4 07/12/2018 00:10:22 74.01, 171.35 52.08 07/12/2018 00:11:06 73.99, 171.29 52.06 3.21 44
5 07/14/2018 18:55:08 -73.97, 70.25 127.56 07/14/2018 18:54:45 -73.99, 70.35 127.54 3.40 23
6 07/14/2018 19:44:36 74.04,-122.26 52.53 07/14/2018 19:45:24 74.04,-122.20 52.51 2.12 48
7 07/17/2018 13:39:44 73.34, -29.59 52.22 07/17/2018 13:38:38 73.26, -32.26 52.27 85.79 66
8 07/17/2018 14:29:23 -74.00, 136.63 127.07 07/17/2018 14:29:05 -73.98, 136.75 127.08 3.77 18
9 07/17/2018 15:18:50 74.02, -55.77 52.96 07/17/2018 15:19:44 74.03, -55.80 52.97 1.72 54
10 07/20/2018 09:14:02 73.53, 36.45 52.94 07/20/2018 09:12:53 73.50, 34.70 53.00 55.37 69
11 07/20/2018 10:03:37 -73.97,-156.88 126.58 07/20/2018 10:03:25 -73.98,-156.85 126.58 0.93 12
12 07/20/2018 10:53:05 74.05, 10.59 53.51 07/20/2018 10:54:04 74.02, 10.59 53.48 2.97 59




NCC Satellite Simultaneous Nadir Overpasses (SNOs) Prediction Service
